Akron, CO

10:55 PM MDT on May 22, 2017 (GMT -0600)
Akron-Washington County

Weather History for KAKO - November, 2011

Change the Weather History Date:

Friday, November 4, 2011

  Actual Average Record
Temperature  
Mean Temperature 40 °F 43 °F  
Max Temperature 59 °F 56 °F 76 °F (2007)
Min Temperature 21 °F 30 °F 8 °F (1967)
Degree Days  
Heating Degree Days 25    
Month to date heating degree days 125  
Cooling Degree Days 0    
Month to date cooling degree days 0  
Moisture  
Dew Point 26 °F    
Average Humidity 64    
Maximum Humidity 92    
Minimum Humidity 36    
Precipitation  
Precipitation 0.00 in 0.02 in 0.26 in (1953)
Month to date precipitation 0.13 0.08  
Year to date precipitation 15.84  
Sea Level Pressure  
Sea Level Pressure 29.85 in    
Wind  
Wind Speed 10 mph (SSW)    
Max Wind Speed 25 mph    
Max Gust Speed 33 mph    
Visibility 7 miles    
Events      
T = Trace of Precipitation, MM = Missing Value Source: NWS Daily Summary

Daily Weather History Graph

Daily Weather History Graph

Search for Another Location

Airport or City:

Trip Planner

Search our weather history database for the weather conditions in past years. The results will help you decide how hot, cold, wet, or windy it might be!

Date:

Astronomy

Nov. 04, 2011 Rise Set
Actual Time 7:25 AM MDT 5:46 PM MDT
Civil Twilight 6:57 AM MDT 6:15 PM MDT
Nautical Twilight 6:24 AM MDT 6:47 PM MDT
Astronomical Twilight 5:53 AM MDT 7:19 PM MDT
Moon 2:39 PM MDT (11/4) 1:39 AM MDT (11/4)
Length of Visible Light 11h 18m
Length of Day
10h 21m
Waxing Gibbous, 70% of the Moon is Illuminated
Nov 4
Waxing Gibbous
Nov 10
Full
Nov 18
Last Quarter
Nov 24
New
Dec 2
First Quarter

Hourly Weather History & Observations

Time (MDT) Temp. Windchill Dew Point Humidity Pressure Visibility Wind Dir Wind Speed Gust Speed Precip Events Conditions
12:53 AM 28.0 °F 18.6 °F 24.1 °F 85% 29.99 in 10.0 mi SSE 10.4 mph - N/A   Clear
1:53 AM 28.0 °F 18.6 °F 24.1 °F 85% 29.94 in 10.0 mi SSE 10.4 mph - N/A   Clear
2:53 AM 26.1 °F 19.4 °F 23.0 °F 88% 29.92 in 10.0 mi SSE 5.8 mph - N/A   Clear
3:53 AM 25.0 °F 20.7 °F 23.0 °F 92% 29.91 in 10.0 mi South 3.5 mph - N/A   Clear
4:53 AM 21.0 °F 16.2 °F 19.0 °F 92% 29.94 in 3.0 mi WNW 3.5 mph - N/A   Clear
5:53 AM 21.9 °F 10.4 °F 19.0 °F 89% 29.93 in 3.0 mi WNW 11.5 mph - N/A   Clear
6:49 AM 21.2 °F 8.9 °F 19.4 °F 93% 29.87 in 2.5 mi West 12.7 mph - N/A   Clear
6:53 AM 21.9 °F 9.8 °F 19.0 °F 89% 29.95 in 2.5 mi West 12.7 mph - N/A   Clear
7:12 AM 21.2 °F 8.9 °F 19.4 °F 93% 29.87 in 3.0 mi West 12.7 mph - N/A   Clear
7:36 AM 21.2 °F 16.4 °F 19.4 °F 93% 29.88 in 2.0 mi Variable 3.5 mph - N/A   Clear
7:53 AM 21.9 °F 15.7 °F 19.9 °F 92% 29.97 in 2.0 mi WSW 4.6 mph - N/A   Clear
8:53 AM 24.1 °F 12.0 °F 19.9 °F 84% 29.98 in 2.5 mi WSW 13.8 mph - N/A   Clear
9:24 AM 26.6 °F 16.2 °F 21.2 °F 80% 29.90 in 3.0 mi West 11.5 mph - N/A   Clear
9:53 AM 28.0 °F 19.3 °F 24.1 °F 85% 29.97 in 3.0 mi WSW 9.2 mph - N/A   Clear
10:53 AM 37.0 °F 33.3 °F 27.0 °F 67% 29.92 in 7.0 mi SSW 4.6 mph - N/A   Clear
11:53 AM 48.0 °F - 28.0 °F 46% 29.86 in 10.0 mi SW 3.5 mph - N/A   Clear
12:53 PM 52.0 °F - 28.0 °F 40% 29.83 in 10.0 mi SW 6.9 mph - N/A   Clear
1:53 PM 57.0 °F - 30.0 °F 36% 29.81 in 10.0 mi SE 4.6 mph - N/A   Clear
3:53 PM 55.9 °F - 35.1 °F 45% 29.77 in 10.0 mi SE 11.5 mph - N/A   Clear
4:53 PM 52.0 °F - 35.1 °F 53% 29.79 in 10.0 mi ESE 11.5 mph - N/A   Clear
5:53 PM 48.0 °F - 35.1 °F 61% 29.79 in 10.0 mi SE 13.8 mph - N/A   Clear
6:53 PM 46.0 °F 39.9 °F 35.1 °F 66% 29.79 in 10.0 mi SE 13.8 mph - N/A   Clear
7:53 PM 48.9 °F - 34.0 °F 56% 29.75 in 10.0 mi South 13.8 mph - N/A   Clear
8:53 PM 50.0 °F - 30.9 °F 48% 29.73 in 10.0 mi South 18.4 mph - N/A   Clear
9:53 PM 48.9 °F - 28.9 °F 46% 29.71 in 10.0 mi South 13.8 mph - N/A   Clear
10:53 PM 46.9 °F - 30.0 °F 52% 29.66 in 10.0 mi South 12.7 mph - N/A   Clear
11:53 PM 48.0 °F - 30.0 °F 50% 29.60 in 10.0 mi South 17.3 mph - N/A   Clear